DW8235 Weather Reports


time (UTC)temp
C
wind
direction
speed
KPH
gust
KPH
rain 1hr
cm
rain 24hr
cm
rain mn
cm
humidity
%
barometer
mb
20260504173010 25 168 3.2 17.7 0.00 0.00 0.00 44 1017.9
20260504171507 25 161 1.6 11.3 0.00 0.00 0.00 47 1018.0
20260504160105 24 155 3.2 16.1 0.00 0.00 0.00 48 1018.7
20260504081535 12 198 0.0 0.0 0.00 0.00 0.00 90 1018.3
20260504044556 14 198 0.0 0.0 0.00 0.00 0.00 82 1019.8
20260504043059 14 198 0.0 0.0 0.00 0.00 0.00 81 1019.9
20260504041554 15 198 0.0 0.0 0.00 0.00 0.00 80 1019.9
20260504040054 15 198 0.0 0.0 0.00 0.00 0.00 80 1019.8
20260504034554 15 198 0.0 0.0 0.00 0.00 0.00 78 1019.9
20260504033059 15 198 0.0 0.0 0.00 0.00 0.00 77 1019.8
20260504031554 16 198 0.0 0.0 0.00 0.00 0.00 75 1019.9
20260504030053 16 198 0.0 0.0 0.00 0.00 0.00 75 1019.8
20260504024554 16 198 0.0 0.0 0.00 0.00 0.00 72 1019.6
20260504023052 16 198 0.0 0.0 0.00 0.00 0.00 71 1019.6
20260504021552 17 198 0.0 0.0 0.00 0.00 0.00 68 1019.5
20260504020127 17 198 0.0 0.0 0.00 0.00 0.00 67 1019.3
20260504014602 18 198 0.0 0.0 0.00 0.00 0.00 66 1019.2
20260504013105 18 198 0.0 0.0 0.00 0.00 0.00 63 1019.0
20260504011550 19 198 0.0 0.0 0.00 0.00 0.00 58 1018.8
20260504010049 20 198 0.0 0.0 0.00 0.00 0.00 56 1018.9
20260504004619 20 198 0.0 0.0 0.00 0.00 0.00 55 1018.8
20260504003053 21 198 0.0 0.0 0.00 0.00 0.00 53 1018.7
20260504001617 21 198 0.0 1.6 0.00 0.00 0.00 51 1018.6
20260504000051 21 198 0.0 1.6 0.00 0.00 0.00 50 1018.6
20260503234546 22 198 0.0 1.6 0.00 0.00 0.00 49 1018.6
20260503233046 22 198 0.0 0.0 0.00 0.00 0.00 47 1018.8
20260503231545 22 198 0.0 0.0 0.00 0.00 0.00 47 1018.7
20260503230106 22 198 0.0 1.6 0.00 0.00 0.00 46 1018.8
20260503224543 22 198 0.0 1.6 0.00 0.00 0.00 46 1018.9
20260503223043 22 199 0.0 6.4 0.00 0.00 0.00 45 1018.9
20260503221540 22 195 0.0 8.0 0.00 0.00 0.00 44 1019.0
20260503220045 23 165 0.0 9.7 0.00 0.00 0.00 43 1019.2
20260503214538 23 170 1.6 6.4 0.00 0.00 0.00 42 1019.3
20260503213037 23 162 1.6 11.3 0.00 0.00 0.00 44 1019.5
20260503211535 23 165 0.0 4.8 0.00 0.00 0.00 43 1019.7
20260503210033 23 169 8.0 16.1 0.00 0.00 0.00 43 1019.8
20260503204533 23 176 1.6 8.0 0.00 0.00 0.00 42 1020.0
20260503203046 23 159 4.8 14.5 0.00 0.00 0.00 41 1020.2
20260503201534 23 135 6.4 17.7 0.00 0.00 0.00 42 1020.4
20260503200031 25 173 0.0 9.7 0.00 0.00 0.00 41 1020.6
20260503194539 24 157 0.0 12.9 0.00 0.00 0.00 39 1020.9
20260503193034 24 114 1.6 4.8 0.00 0.00 0.00 38 1021.0
20260503191531 25 351 0.0 6.4 0.00 0.00 0.00 37 1021.3
20260503190038 25 9 0.0 11.3 0.00 0.00 0.00 37 1021.5
20260503184528 25 71 0.0 8.0 0.00 0.00 0.00 37 1021.7
20260503183026 24 123 0.0 8.0 0.00 0.00 0.00 35 1021.8
20260503181525 24 331 1.6 14.5 0.00 0.00 0.00 38 1021.9
20260503180028 24 338 0.0 6.4 0.00 0.00 0.00 38 1022.1
20260503174524 23 306 0.0 8.0 0.00 0.00 0.00 38 1022.3